www.pogodaiklimat.ru

Погода и климат >> Архив погоды >> Италия >> Отранто


ПОГОДА в Отранто

  • Прогноз погоды в Отранто
  • Монитор погоды в Отранто

АРХИВ ПОГОДЫ в Отранто

Время (UTC), дата Ветер
(напр.,м/с)
 
Видим.   Явления Облачность Т
(С)
Тd
(С)
f
(%)
Тe
(С)
Тes
(С)
Комфортность P
(гПа)
Po
(гПа)
Тmin
(С)
Tmax
(С)
R
(мм)
R24
(мм)
S
(см)
01 18.03 Ю 9 н/о н/о +14.4 +13.4 94 +12 +12 1015.6 1005.4
02 18.03 Ю 7 н/о н/о +14.4 +13.4 94 +12 +12 1015.2 1005.0
03 18.03 ЮВ 8 н/о н/о +14.3 +14.1 99 +12 +12 1014.8 1004.6
04 18.03 Ю 6 н/о н/о +14.3 +14.2 99 +12 +12 1014.9 1004.7
05 18.03 ЮВ 8 н/о н/о +14.3 +14.2 99 +12 +12 1014.7 1004.5
06 18.03 Ю 8 н/о н/о +14.5 +14.4 99 +12 +12 1014.9 1004.7 +14.1 715
07 18.03 Ю 8 н/о н/о +14.8 +14.7 99 +13 +13 1015.1 1004.9
08 18.03 Ю 7 н/о н/о +15.0 +14.9 99 +13 +13 1015.5 1005.3
09 18.03 Ю 7 н/о н/о +15.0 +14.9 99 +13 +13 1015.9 1005.7
10 18.03 Ю 6 н/о н/о +15.0 +14.9 99 +13 +13 1016.1 1005.9
11 18.03 Ю 8 н/о н/о +15.7 +15.6 99 +14 +14 1016.1 1006.0
12 18.03 Ю 8 н/о н/о +16.5 +16.4 99 +15 +15 1015.4 1005.3
13 18.03 Ю 8 н/о н/о +16.2 +16.1 99 +14 +14 1015.0 1004.9
14 18.03 Ю 7 н/о н/о +15.8 +15.7 99 +14 +14 1014.7 1004.6
15 18.03 Ю 8 н/о н/о +15.3 +15.2 99 +13 +13 1014.5 1004.4
16 18.03 Ю 7 н/о н/о +15.2 +15.1 99 +13 +13 1014.8 1004.6
17 18.03 Ю 7 н/о н/о +14.5 +14.4 99 +12 +12 1014.9 1004.7
18 18.03 Ю 7 н/о н/о +14.2 +14.1 99 +12 +12 1015.2 1005.0 +16.9
19 18.03 Ю 7 н/о н/о +14.2 +14.1 99 +12 +12 1015.5 1005.3
20 18.03 Ю 6 н/о н/о +14.1 +14.0 99 +12 +12 1016.0 1005.8
21 18.03 Ю 7 н/о н/о +14.1 +14.0 99 +12 +12 1016.1 1005.9
22 18.03 Ю 7 н/о н/о +14.0 +13.9 99 +12 +12 1015.9 1005.7
23 18.03 Ю 6 н/о н/о +14.0 +13.9 99 +12 +12 1016.0 1005.8
00 19.03 Ю 6 н/о н/о +13.9 +13.8 99 +12 +12 1015.9 1005.7
01 19.03 Ю 7 н/о н/о +13.9 +13.8 99 +12 +12 1015.4 1005.2
02 19.03 Ю 5 н/о н/о +14.0 +13.9 99 +12 +12 1015.3 1005.1
03 19.03 ЮВ 5 н/о н/о +14.1 +14.0 99 +12 +12 1015.2 1005.0
04 19.03 ЮВ 4 н/о н/о +14.0 +13.9 99 +12 +12 1015.6 1005.4
05 19.03 ЮВ 3 н/о н/о +13.5 +13.4 99 +12 +12 1015.6 1005.4
06 19.03 Ю 3 н/о н/о +13.7 +13.6 99 +12 +12 1016.2 1006.0 +13.3 606
07 19.03 ЮВ 4 н/о н/о +15.1 +15.0 99 +14 +14 1016.2 1006.0
08 19.03 ЮВ 3 н/о н/о +15.1 +15.0 99 +14 +14 1016.9 1006.7
09 19.03 Ю 4 н/о н/о +15.7 +15.6 99 +15 +15 1016.9 1006.7
10 19.03 ЮВ 5 н/о н/о +16.3 +16.2 99 +15 +15 1016.7 1006.6
11 19.03 Ю 5 н/о н/о +17.3 +17.2 99 +17 +17 1016.8 1006.7
12 19.03 Ю 4 н/о н/о +17.1 +17.0 99 +17 +17 1016.7 1006.6
13 19.03 ЮВ 5 н/о н/о +16.8 +16.4 97 +16 +16 1016.5 1006.4
14 19.03 ЮВ 3 н/о н/о +17.2 +17.1 99 +17 +17 1016.2 1006.1
15 19.03 Ю 3 н/о н/о +16.4 +16.2 99 +16 +16 1016.3 1006.2
16 19.03 ЮВ 2 н/о н/о +16.2 +16.1 99 +16 +16 1016.4 1006.3
17 19.03 Ю 1 н/о н/о +15.0 +14.9 99 +15 +15 1017.1 1006.9
18 19.03 Ю 1 н/о н/о +13.7 +13.6 99 +15 +15 1017.7 1007.5 +17.7
19 19.03 В 1 н/о н/о +13.6 +13.5 99 +14 +14 1018.2 1008.0
20 19.03 штиль 0 н/о н/о +13.0 +12.9 99 +12 +12 1018.6 1008.3
21 19.03 штиль 0 н/о н/о +12.7 +12.7 100 +12 +12 1019.1 1008.8
22 19.03 СЗ 1 н/о н/о +12.1 +12.1 100 +12 +12 1019.3 1009.0
23 19.03 СЗ 2 н/о н/о +11.5 +11.5 100 +10 +10 1019.3 1009.0
00 20.03 СЗ 2 н/о н/о +11.6 +11.6 100 +10 +10 1019.5 1009.2
01 20.03 С 2 н/о н/о +11.4 +11.4 100 +10 +10 1019.5 1009.2
02 20.03 С 3 н/о н/о +11.6 +11.6 100 +10 +10 1019.4 1009.1
03 20.03 С 4 н/о н/о +11.6 +11.6 100 +9 +9 1019.3 1009.0
04 20.03 С 4 н/о н/о +11.6 +11.6 100 +9 +9 1019.2 1008.9
05 20.03 С 5 н/о н/о +12.2 +12.2 100 +10 +10 1019.2 1008.9
06 20.03 С 6 н/о н/о +13.0 +12.9 99 +10 +10 1019.8 1009.5 +10.7 612
07 20.03 С 6 н/о н/о +13.7 +13.6 99 +11 +11 1020.2 1009.9
08 20.03 С 7 н/о н/о +13.8 +13.7 99 +11 +11 1020.3 1010.0
09 20.03 С 7 н/о н/о +14.7 +14.6 99 +13 +13 1020.5 1010.3
10 20.03 СЗ 8 н/о н/о +15.2 +15.1 99 +13 +13 1020.8 1010.6
11 20.03 С 9 н/о н/о +15.7 +15.6 99 +14 +14 1020.7 1010.5
12 20.03 С 9 н/о н/о +14.9 +14.8 99 +13 +13 1020.5 1010.3
13 20.03 С 9 н/о н/о +15.7 +14.7 94 +14 +14 1020.2 1010.0
14 20.03 С 9 н/о н/о +14.9 +13.9 94 +13 +13 1020.1 1009.9
15 20.03 С 9 н/о н/о +14.5 +13.5 94 +12 +12 1020.3 1010.1
16 20.03 С 8 н/о н/о +13.7 +13.6 99 +11 +11 1020.8 1010.5
17 20.03 СЗ 8 н/о н/о +13.3 +13.2 99 +10 +10 1021.4 1011.1
18 20.03 С 8 н/о н/о +13.1 +13.0 99 +10 +10 1021.6 1011.3 +15.8
19 20.03 С 9 н/о н/о +13.0 +12.9 99 +10 +10 1021.9 1011.6
20 20.03 С 8 н/о н/о +12.8 +12.8 100 +10 +10 1022.1 1011.8
21 20.03 С 7 н/о н/о +12.8 +12.8 100 +10 +10 1022.4 1012.1
22 20.03 СЗ 8 н/о н/о +12.7 +12.7 100 +10 +10 1022.5 1012.2
23 20.03 СЗ 7 н/о н/о +12.7 +12.7 100 +10 +10 1022.6 1012.3
00 21.03 С 8 н/о н/о +13.1 +13.0 99 +10 +10 1022.6 1012.3
01 21.03 СЗ 7 н/о н/о +12.9 +12.8 99 +10 +10 1022.4 1012.1
02 21.03 С 7 н/о н/о +12.9 +12.8 99 +10 +10 1021.8 1011.5
03 21.03 С 7 н/о н/о +13.3 +13.2 99 +11 +11 1021.9 1011.6
04 21.03 СЗ 6 н/о н/о +13.0 +12.9 99 +10 +10 1022.0 1011.7
05 21.03 С 5 н/о н/о +13.0 +12.9 99 +11 +11 1022.4 1012.1
06 21.03 СЗ 5 н/о н/о +13.0 +12.9 99 +11 +11 1022.8 1012.5 +12.6 310
07 21.03 С 5 н/о н/о +14.7 +14.6 99 +13 +13 1023.1 1012.9
08 21.03 С 6 н/о н/о +16.2 +15.8 97 +15 +15 1023.3 1013.1
09 21.03 С 5 н/о н/о +17.4 +16.2 93 +17 +17 1023.4 1013.2
10 21.03 С 5 н/о н/о +17.4 +16.2 93 +17 +17 1023.3 1013.2
11 21.03 С 6 н/о н/о +17.7 +16.8 94 +17 +17 1023.3 1013.2
12 21.03 С 6 н/о н/о +17.3 +16.1 93 +17 +17 1023.2 1013.0
13 21.03 С 5 н/о н/о +17.5 +16.3 93 +17 +17 1022.5 1012.4
14 21.03 С 4 н/о н/о +17.8 +16.6 93 +18 +18 1022.1 1012.0
15 21.03 С 4 н/о н/о +17.7 +16.8 94 +17 +17 1022.0 1011.9
17 21.03 СЗ 5 н/о н/о +15.8 +15.1 96 +15 +15 1022.3 1012.1
18 21.03 СЗ 6 н/о н/о +14.2 +14.1 99 +12 +12 1022.6 1012.3 +18.3
19 21.03 СЗ 7 н/о н/о +14.4 +14.3 99 +12 +12 1023.1 1012.8
20 21.03 СЗ 6 н/о н/о +14.1 +14.0 99 +12 +12 1023.5 1013.2
21 21.03 СЗ 6 н/о н/о +13.7 +13.6 99 +11 +11 1023.9 1013.6
22 21.03 СЗ 5 н/о н/о +13.2 +13.1 99 +11 +11 1023.9 1013.6
23 21.03 СЗ 4 н/о н/о +12.8 +12.8 100 +11 +11 1024.0 1013.7
00 22.03 СЗ 4 н/о н/о +12.6 +12.6 100 +11 +11 1024.2 1013.9
01 22.03 СЗ 3 н/о н/о +12.3 +12.3 100 +11 +11 1024.0 1013.7
02 22.03 СЗ 3 н/о н/о +12.0 +12.0 100 +10 +10 1024.0 1013.6
03 22.03 СЗ 1 н/о н/о +11.6 +11.6 100 +11 +11 1023.9 1013.5
04 22.03 С 1 н/о н/о +11.3 +11.3 100 +11 +11 1024.2 1013.8
05 22.03 С 1 н/о н/о +12.4 +12.4 100 +12 +12 1024.3 1013.9
06 22.03 СЗ 1 н/о н/о +12.0 +12.0 100 +12 +12 1024.7 1014.3 +11.3 302
07 22.03 СЗ 1 н/о н/о +13.7 +13.6 99 +14 +14 1024.7 1014.4
08 22.03 С 2 н/о н/о +16.1 +16.0 99 +16 +16 1024.5 1014.3
09 22.03 С 3 н/о н/о +17.0 +16.1 94 +17 +17 1024.5 1014.3
10 22.03 С 4 н/о н/о +17.1 +15.2 89 +17 +17 1024.3 1014.1
11 22.03 С 4 н/о н/о +17.5 +15.6 89 +17 +17 1024.1 1013.9
12 22.03 С 4 н/о н/о +17.8 +15.9 89 +18 +18 1023.5 1013.4
13 22.03 С 5 н/о н/о +17.4 +16.5 94 +17 +17 1022.9 1012.8
14 22.03 СВ 7 н/о н/о +17.2 +14.9 86 +16 +16 1022.7 1012.5
15 22.03 С 6 н/о н/о +16.9 +15.2 90 +16 +16 1022.4 1012.2
16 22.03 С 7 н/о н/о +15.9 +14.2 90 +14 +14 1022.3 1012.1
17 22.03 С 6 н/о н/о +14.6 +13.9 96 +13 +13 1022.3 1012.1
18 22.03 СЗ 6 н/о н/о +13.6 +13.5 99 +11 +11 1022.6 1012.3 +18.2
19 22.03 С 5 н/о н/о +13.3 +13.2 99 +11 +11 1022.7 1012.4
20 22.03 С 6 н/о н/о +12.9 +12.8 99 +10 +10 1022.6 1012.3
21 22.03 СЗ 6 н/о н/о +12.8 +12.8 100 +10 +10 1022.3 1012.0
22 22.03 С 6 н/о н/о +12.6 +12.6 100 +10 +10 1021.8 1011.5
23 22.03 СЗ 5 н/о н/о +12.6 +12.6 100 +10 +10 1021.6 1011.3
00 23.03 СЗ 6 н/о н/о +12.8 +12.8 100 +10 +10 1021.5 1011.2
01 23.03 СЗ 5 н/о н/о +12.6 +12.6 100 +10 +10 1021.2 1010.9
02 23.03 СЗ 6 н/о н/о +12.5 +12.5 100 +10 +10 1020.6 1010.3
03 23.03 С 5 н/о н/о +12.5 +12.5 100 +10 +10 1020.5 1010.2
04 23.03 С 5 н/о н/о +12.4 +12.4 100 +10 +10 1020.5 1010.2
05 23.03 СЗ 5 н/о н/о +12.4 +12.4 100 +10 +10 1020.5 1010.2
06 23.03 СЗ 5 н/о н/о +12.8 +12.8 100 +11 +11 1020.6 1010.3 +12.3 409
07 23.03 С 5 н/о н/о +14.5 +14.4 99 +13 +13 1020.5 1010.3
08 23.03 С 4 н/о н/о +15.7 +15.6 99 +15 +15 1020.5 1010.3
09 23.03 С 4 н/о н/о +16.2 +16.0 99 +15 +15 1020.6 1010.4
10 23.03 С 5 н/о н/о +16.4 +15.5 94 +16 +16 1020.2 1010.0
11 23.03 С 4 н/о н/о +17.8 +16.9 94 +18 +18 1019.9 1009.8
12 23.03 СЗ 6 н/о н/о +17.4 +14.6 84 +17 +17 1019.6 1009.5
13 23.03 С 6 н/о н/о +18.1 +15.1 83 +18 +18 1018.9 1008.8
14 23.03 С 5 н/о н/о +18.3 +14.7 80 +18 +18 1018.8 1008.7
15 23.03 СЗ 7 н/о н/о +16.9 +15.0 89 +16 +16 1018.6 1008.5
16 23.03 С 7 н/о н/о +16.0 +14.1 88 +14 +14 1018.9 1008.7
17 23.03 С 5 н/о н/о +15.0 +13.3 90 +13 +13 1019.0 1008.8
18 23.03 С 5 н/о н/о +13.8 +12.7 93 +12 +12 1019.2 1009.0 +18.5
19 23.03 С 5 н/о н/о +13.4 +12.4 94 +11 +11 1019.8 1009.5
20 23.03 СЗ 4 н/о н/о +12.8 +11.8 94 +11 +11 1019.9 1009.6
21 23.03 СЗ 5 н/о н/о +12.5 +12.5 100 +10 +10 1019.8 1009.5
22 23.03 СЗ 5 н/о н/о +12.4 +12.4 100 +10 +10 1019.8 1009.5
23 23.03 СЗ 6 н/о н/о +12.2 +12.2 100 +9 +9 1019.6 1009.3
00 24.03 С 5 н/о н/о +11.7 +11.7 100 +9 +9 1019.4 1009.1
01 24.03 С 5 н/о н/о +12.1 +12.1 100 +10 +10 1019.2 1008.9
02 24.03 С 6 н/о н/о +12.0 +12.0 100 +9 +9 1018.7 1008.4
03 24.03 С 6 н/о н/о +12.1 +12.1 100 +9 +9 1018.6 1008.3
04 24.03 СЗ 6 н/о н/о +12.1 +12.1 100 +9 +9 1018.6 1008.3
05 24.03 СЗ 6 н/о н/о +12.7 +12.7 100 +10 +10 1018.8 1008.5
06 24.03 С 6 н/о н/о +13.5 +13.4 99 +11 +11 1019.2 1009.0 +11.6 411
07 24.03 С 6 н/о н/о +15.3 +15.2 99 +14 +14 1019.5 1009.3
08 24.03 СЗ 6 н/о н/о +16.4 +15.4 94 +15 +15 1019.7 1009.6
09 24.03 С 7 н/о н/о +16.9 +16.2 96 +16 +16 1019.9 1009.8
10 24.03 С 7 н/о н/о +17.2 +15.8 91 +16 +16 1019.8 1009.7
11 24.03 С 6 н/о н/о +17.7 +17.0 96 +17 +17 1019.8 1009.7
12 24.03 С 8 н/о н/о +17.3 +15.8 91 +16 +16 1019.5 1009.4
13 24.03 С 5 н/о н/о +17.6 +15.7 89 +17 +17 1019.0 1008.9
14 24.03 С 6 н/о н/о +17.6 +15.7 89 +17 +17 1018.4 1008.3
15 24.03 С 6 н/о н/о +17.0 +15.3 90 +16 +16 1018.3 1008.2
16 24.03 С 5 н/о н/о +16.5 +14.8 90 +16 +16 1018.3 1008.2
17 24.03 С 4 н/о н/о +15.3 +13.8 91 +14 +14 1018.5 1008.3
18 24.03 СЗ 4 н/о н/о +13.7 +12.7 94 +12 +12 1018.4 1008.2 +18.1
19 24.03 С 4 н/о н/о +13.1 +13.0 99 +11 +11 1018.8 1008.5
20 24.03 С 3 н/о н/о +12.3 +12.3 100 +11 +11 1018.7 1008.4
21 24.03 СЗ 2 н/о н/о +11.6 +11.6 100 +10 +10 1018.5 1008.2
22 24.03 С 2 н/о н/о +12.3 +12.3 100 +12 +12 1018.2 1007.9
23 24.03 СЗ 2 н/о н/о +12.1 +12.1 100 +11 +11 1017.9 1007.6

 

Местоположение метеостанции Отранто (Италия): широта 40.10 долгота 18.48 высота над уровнем моря 79 м.

В архиве по умолчанию представлена погода в Отранто за последнюю неделю. Архивные данные за месяц целиком и за предыдущие месяцы, начиная с января 2011 года, Вы можете получить, выбрав интересующий диапазон дат из раскрывающегося списка и нажав кнопку "Ввод!".


*Определитесь, кто Вы:
робот инопланетянин человек

Внимание! Время в таблицах - всемирное. Для получения местного времени необходимо прибавить поправку, которая равна 1 ч.

Смотрите также архив погоды в соседних городах и на ближайших метеорологических станциях:

Погода в Лечче (Италия) (32 км)
Погода в Санта-Мария-ди-Леуке (Италия) (33 км)
Погода в Бриндиси (Италия) (76 км)
Погода на Сазани (Албания) (81 км)
Погода во Влёре (Албания) (94 км)
Погода в Мартина-Франка (Италия) (122 км)
Погода в Саранде (Албания) (132 км)
Погода в Керкире (Греция) (134 км)
Погода в Пунто Алисе (Италия) (136 км)
Погода в Джинозе (Италия) (141 км)

Пояснения к столбцам:

Ветер - указаны скорость ветра в м/с - средняя за 10 мин, порывы в срок и между сроками (в фигурных скобках) и направление, откуда дует ветер: С - северный, СВ - северо-восточный, В - восточный, ЮВ - юго-восточный, Ю - южный, ЮЗ - юго-западный, З - западный, СЗ - северо-западный.
Видимость - горизонтальная дальность видимости в метрах или километрах. При видимости от 1 до 10 км при отсутствии осадков обычно наблюдается дымка, при ухудшении видимости до 1 км и менее - туман. В сухую погоду видимость может ухудшаться дымом, пылью или мглою.
Явления - указаны атмосферные явления, наблюдавшиеся в срок или в последний час перед сроком; фигурными скобками обозначены явления, наблюдавшиеся между сроками (за 1-3 часа до срока); квадратными скобками обозначены град или гололедные отложения с указанием их диаметра в мм.
Облачность - указаны через наклонную черту общая и нижняя облачность в баллах и высота нижней границы облаков в метрах; квадратными скобками обозначены формы облаков: Ci - перистые, Cs - перисто-слоистые, Cc - перисто-кучевые, Ac - высококучевые, As - высокослоистые, Sc - слоисто-кучевые, Ns - слоисто-дождевые, Cu - кучевые, Cb - кучево-дождевые. Подробнее классификацию облаков см. в Атласе облаков (PDF).
T - Температура воздуха - температура, измеренная на высоте 2 м над землей.
Td - Температура точки росы - температура, при понижении до которой содержащийся в воздухе водяной пар достигнет насыщения.
f - Относительная влажность воздуха - влажноcть воздуха, измеренная на высоте 2 м над землей.
Te - Эффективная температура - температура, которую ощущает одетый по сезону человек в тени. Характеристика душности погоды. При расчете учитывается влияние влажности воздуха и скорости ветра на теплоощущения человека.
Tes - Эффективная температура на солнце - температура, которую ощущает человек, с поправкой на солнечный нагрев. Характеристика знойности погоды. Зависит от высоты солнца над горизонтом, облачности и скорости ветра. Ночью, в пасмурную погоду, а также при ветре 12 м/с и более поправка равна нулю.
P - Атмосферное давление - приведенное к уровню моря атмосферное давление.
Po - Атмосферное давление - измеренное на уровне метеостанции атмосферное давление.
Tmin - Минимальная температура - минимум температуры воздуха на высоте 2 м над землей.
Tmax - Максимальная температура - максимум температуры воздуха на высоте 2 м над землей.
R - Количество осадков - Количество выпавших осадков за период времени, мм. При наведении курсора мыши на число - период времени, за который выпало указанное количество осадков.
R24 - Количество осадков - Количество выпавших осадков за 24 часа, мм.
S - Снежный покров - Высота снежного покрова, см. При наведении курсора мыши на число - состояние снежного покрова и степень покрытия местности в баллах.